星链-6379 (STARLINK-6379 )

导读

STARLINK-6379是美国SpaceX公司星链计划中的一颗卫星,于2023年7月16日发射升空。星链计划旨在构建全球卫星互联网星座,为全球偏远地区等提供高速互联网接入服务,该卫星的入轨进一步扩充了星链星座的规模,推进了全球网络覆盖的建设进程。

Basic Information
目录编号:
57343
目录名称:
STARLINK-6379
国际标识:
2023-099R
轨道中心:
EARTH
卫星名称:
星链-6379
卫星全名:
星链-6379 (STARLINK-6379 )
卫星状态:
在轨 (已飞行1064 天)
发射日期:
2023-07-16 UTC
国别 :
美国 (US)
星等 :
--
Orbit Information
数据来源 国际轨道数据 AOE轨道数据
星历时间 2026-06-14T08:13:01+0800
19小时前
查看轨道信息
2026-06-10T23:00:00+0800
4天前
查看轨道信息
半长轴 6861.19km 6861.19km
偏心率 0.0001666 0.0001184
轨道倾角 43.007° 43.002°
近地点辐角 271.311° 253.717°
升交点赤经 68.745° 87.854°
平近点角 88.755° 194.747°
近地点 481.909km 482.24km
远地点 484.197km 483.866km
周期 94.267分钟 94.267分钟
每日圈数 15.275788 15.27579
Detailed Information
固有亮度:
5
最大亮度:
2.5
卫星平台:
Starlink v1.5
覆盖范围:
全球
运营商:
太空探索技术公司
运营商所在国:
美国
制造商(研发单位):
太空探索技术公司
制造商所在国:
美国
使用方式:
暂无
Satellite Introduction
星链(Starlink)计划是由太空探索技术公司(SpaceX)提出的一个巨型低轨卫星互联网星座项目,计划在2019年至2024年间在太空搭建由约1.2万颗卫星组成的“星链”网络,其中1584颗将部署在地球上空550千米处的近地轨道,并从2020年开始工作。该卫星仍在工作。
2D Orbit Map
3D Orbit Map
Orbit Altitude Analysis Chart
Orbit Inclination Analysis Chart
Orbit Comprehensive Analysis Chart
View Comprehensive Chart